Location: Kelshall
(52.0000°N, 0.0500°W)
Time: 04:31:27
(UTC+00:00)

Cosmos 2297 Rocket - Pass Details

Date: 18 September 2020
Orbit: 838 x 845 km, 71.0° (Epoch: 20 October)

Event Time Altitude Azimuth Distance (km) Brightness Sun altitude
Rises 19:02:03 0° 252° (WSW) 3,393 6.4 -9.2°
Reaches altitude 10° 19:04:53 10° 265° (W) 2,463 5.9 -9.6°
Maximum altitude 19:09:35 26° 321° (NW) 1,606 4.4 -10.3°
Drops below altitude 10° 19:14:18 10° 18° (NNE) 2,476 4.6 -11.0°
Sets 19:17:11 0° 31° (NNE) 3,415 5.2 -11.4°
